Louisville, KY

10:40 AM EST on December 07, 2016 (GMT -0500)
Louisville International-Standiford

Weather History for KSDF - June, 2013

Change the Weather History Date:

Friday, June 28, 2013

  Actual Average Record
Temperature  
Mean Temperature 81 °F 78 °F  
Max Temperature 89 °F 88 °F 103 °F (2012)
Min Temperature 73 °F 69 °F 53 °F (1961)
Degree Days  
Heating Degree Days 0 0  
Month to date heating degree days 0 1  
Since 1 June heating degree days 0 1  
Since 1 July heating degree days 4115 4093  
Cooling Degree Days 16 13  
Month to date cooling degree days 316 296  
Year to date cooling degree days 544 470  
Since 1 June cooling degree days 316 296  
Growing Degree Days 31 (Base 50)    
Moisture  
Dew Point 63 °F    
Average Humidity 58    
Maximum Humidity 79    
Minimum Humidity 36    
Precipitation  
Precipitation 0.00 in 0.11 in 4.60 in (1999)
Month to date precipitation 3.76 3.56  
Year to date precipitation 22.81 23.43  
Snow  
Snow 0.00 in 0.00 in - ()
Month to date snowfall 0.0 0.0  
Since 1 June snowfall 0.0 0.0  
Since 1 July snowfall 9.8 12.5  
Snow Depth 0.00 in    
Sea Level Pressure  
Sea Level Pressure 29.68 in    
Wind  
Wind Speed 11 mph (WNW)    
Max Wind Speed 24 mph    
Max Gust Speed 32 mph    
Visibility 10 miles    
Events      
T = Trace of Precipitation, MM = Missing Value Source: NWS Daily Summary

Daily Weather History Graph

Daily Weather History Graph

Search for Another Location

Airport or City:

Trip Planner

Search our weather history database for the weather conditions in past years. The results will help you decide how hot, cold, wet, or windy it might be!

Date:

Astronomy

Jun. 28, 2013 Rise Set
Actual Time 6:22 AM EDT 9:10 PM EDT
Civil Twilight 5:50 AM EDT 9:41 PM EDT
Nautical Twilight 5:11 AM EDT 10:21 PM EDT
Astronomical Twilight 4:26 AM EDT 11:06 PM EDT
Moon 12:12 AM EDT (6/28) 12:23 PM EDT (6/28)
Length of Visible Light 15h 50m
Length of Day
14h 47m
Waning Gibbous, 66% of the Moon is Illuminated
Jun 28
Waning Gibbous
Jun 30
Last Quarter
Jul 8
New
Jul 15
First Quarter
Jul 22
Full

Hourly Weather History & Observations

Time (EDT) Temp. Heat Index Dew Point Humidity Pressure Visibility Wind Dir Wind Speed Gust Speed Precip Events Conditions
12:56 AM 79.0 °F - 71.1 °F 77% 29.74 in 10.0 mi SW 6.9 mph - N/A   Mostly Cloudy
1:56 AM 79.0 °F - 70.0 °F 74% 29.74 in 10.0 mi SW 5.8 mph - N/A   Clear
2:56 AM 79.0 °F - 68.0 °F 69% 29.74 in 10.0 mi West 13.8 mph - N/A   Clear
3:56 AM 78.1 °F - 66.0 °F 66% 29.73 in 10.0 mi West 10.4 mph - N/A   Scattered Clouds
4:56 AM 77.0 °F - 66.0 °F 69% 29.72 in 10.0 mi WNW 10.4 mph 19.6 mph N/A   Scattered Clouds
5:56 AM 73.9 °F - 66.0 °F 76% 29.71 in 10.0 mi West 8.1 mph - N/A   Partly Cloudy
6:56 AM 75.0 °F - 66.0 °F 73% 29.72 in 10.0 mi Calm Calm - N/A   Scattered Clouds
7:56 AM 78.1 °F - 66.9 °F 68% 29.72 in 10.0 mi West 5.8 mph - N/A   Mostly Cloudy
8:56 AM 79.0 °F - 66.0 °F 64% 29.72 in 10.0 mi West 8.1 mph - N/A   Mostly Cloudy
9:56 AM 81.0 °F 83.0 °F 66.0 °F 60% 29.72 in 10.0 mi WNW 11.5 mph - N/A   Mostly Cloudy
10:56 AM 82.9 °F 85.0 °F 66.0 °F 56% 29.71 in 10.0 mi West 10.4 mph - N/A   Mostly Cloudy
11:56 AM 84.0 °F 86.3 °F 66.0 °F 55% 29.71 in 10.0 mi WNW 9.2 mph - N/A   Mostly Cloudy
12:56 PM 87.1 °F 88.3 °F 64.0 °F 46% 29.70 in 10.0 mi WNW 12.7 mph 18.4 mph N/A   Scattered Clouds
1:56 PM 88.0 °F 86.7 °F 57.0 °F 35% 29.68 in 10.0 mi NW 21.9 mph 27.6 mph N/A   Partly Cloudy
2:56 PM 87.1 °F 86.1 °F 57.9 °F 37% 29.66 in 10.0 mi NW 16.1 mph 25.3 mph N/A   Scattered Clouds
3:56 PM 88.0 °F 87.1 °F 59.0 °F 37% 29.64 in 10.0 mi WNW 16.1 mph 25.3 mph N/A   Scattered Clouds
4:56 PM 88.0 °F 86.7 °F 57.0 °F 35% 29.62 in 10.0 mi WNW 15.0 mph - N/A   Partly Cloudy
5:56 PM 88.0 °F 86.9 °F 57.9 °F 36% 29.62 in 10.0 mi West 15.0 mph - N/A   Partly Cloudy
6:56 PM 87.1 °F 86.7 °F 60.1 °F 40% 29.61 in 10.0 mi West 17.3 mph 23.0 mph N/A   Scattered Clouds
7:56 PM 84.9 °F 84.4 °F 59.0 °F 41% 29.62 in 10.0 mi WNW 16.1 mph 21.9 mph N/A   Partly Cloudy
8:56 PM 82.0 °F 81.6 °F 55.9 °F 41% 29.62 in 10.0 mi WNW 10.4 mph - N/A   Scattered Clouds
9:56 PM 77.0 °F - 57.9 °F 52% 29.63 in 10.0 mi WNW 6.9 mph - N/A   Scattered Clouds
10:56 PM 77.0 °F - 57.9 °F 52% 29.65 in 10.0 mi WNW 6.9 mph - N/A   Scattered Clouds
11:56 PM 73.0 °F - 59.0 °F 61% 29.64 in 10.0 mi WNW 6.9 mph - N/A   Scattered Clouds